Simultaneous Nadir Overpasses (SNOs) Predictions

Prediction of SNOs between METOP-B and TERRA Satellite Orbit:

Table of predicted SNOs for the next 14.0 days since TLE Epoch: 10/12/2024
Index Date (METOP-B) Time (METOP-B) Lat,Lon (METOP-B) SZA (METOP-B ) Date (TERRA) Time (TERRA) Lat,Lon (TERRA) SZA (TERRA ) Distance(km) Time Diff (sec)
1 10/13/2024 21:39:59 -79.54, 49.19 91.82 10/13/2024 21:40:42 -79.55, 49.31 91.80 2.71 43
2 10/13/2024 22:30:32 79.78,-141.47 88.54 10/13/2024 22:29:55 79.78,-141.39 88.54 1.57 37
3 10/16/2024 12:10:05 -79.64,-167.56 90.71 10/16/2024 12:10:33 -79.64,-167.59 90.71 0.60 28
4 10/16/2024 13:00:38 79.87, 1.80 89.64 10/16/2024 12:59:46 79.87, 1.72 89.62 1.71 52
5 10/19/2024 02:40:10 -79.72, -24.50 89.66 10/19/2024 02:40:21 -79.71, -24.62 89.67 2.36 11
6 10/19/2024 03:30:46 79.85, 143.99 90.55 10/19/2024 03:29:36 79.86, 144.14 90.55 3.20 70
7 10/21/2024 16:19:44 79.45, -51.52 90.90 10/21/2024 16:20:54 79.46, -51.48 90.92 0.92 70
8 10/21/2024 17:10:16 -79.76, 118.35 88.66 10/21/2024 17:10:08 -79.76, 118.22 88.68 2.59 8
9 10/24/2024 06:49:50 79.48, 91.09 91.84 10/24/2024 06:50:39 79.48, 91.23 91.87 2.95 49



Historial Predications of SNOs between METOP-B and TERRA
